Weather History for Monroe, LA

Change the Weather History Date:

Monday, September 9, 2013

  Actual Average Record
Temperature  
Mean Temperature 82 °F 79 °F  
Max Temperature 97 °F 91 °F 98 °F (1954)
Min Temperature 66 °F 67 °F 53 °F (2011)
Degree Days  
Heating Degree Days 0 0  
Month to date heating degree days 0 0  
Since 1 July heating degree days 0 0  
Cooling Degree Days 17 14  
Month to date cooling degree days 173 136  
Year to date cooling degree days 2018 2143  
Growing Degree Days 32 (Base 50)    
Moisture  
Dew Point 65 °F    
Average Humidity 67    
Maximum Humidity 100    
Minimum Humidity 33    
Precipitation  
Precipitation 0.00 in 0.12 in 2.47 in (1936)
Month to date precipitation 0.04 1.07  
Year to date precipitation 32.32 36.55  
Snow  
Snow 0.00 in - - ()
Month to date snowfall 0.0  
Since 1 July snowfall 0.0  
Since 1 September snowfall 0.0  
Snow Depth 0.00 in    
Sea Level Pressure  
Sea Level Pressure 30.00 in    
Wind  
Wind Speed 2 mph (SSE)    
Max Wind Speed 10 mph    
Max Gust Speed 14 mph    
Visibility 8 miles    
Events      
T = Trace of Precipitation, MM = Missing Value Source: NWS Daily Summary

Daily Weather History Graph

Daily Weather History Graph

Search for Another Location

Airport:

Trip Planner

Search our weather history database for the weather conditions in past years. The results will help you decide how hot, cold, wet, or windy it might be!

Date:

Astronomy

Sep. 09, 2013 Rise Set
Actual Time 6:48 AM CDT 7:21 PM CDT
Civil Twilight 6:23 AM CDT 7:46 PM CDT
Nautical Twilight 5:54 AM CDT 8:15 PM CDT
Astronomical Twilight 5:24 AM CDT 8:45 PM CDT
Moon 10:53 AM CDT (9/9) 9:57 PM CDT (9/9)
Length of Visible Light 13h 23m
Length of Day
12h 33m
Waxing Crescent, 19% of the Moon is Illuminated
Sep 9
Waxing Crescent
Sep 12
First Quarter
Sep 19
Full
Sep 26
Last Quarter
Oct 4
New

Hourly Weather History & Observations

Time (CDT) Temp. Heat Index Dew Point Humidity Pressure Visibility Wind Dir Wind Speed Gust Speed Precip Events Conditions
12:53 AM 75.9 °F - 66.9 °F 74% 29.96 in 10.0 mi South 3.5 mph - N/A   Clear
1:53 AM 73.9 °F - 66.0 °F 76% 29.97 in 9.0 mi South 3.5 mph - N/A   Clear
2:53 AM 72.0 °F - 66.9 °F 84% 29.96 in 8.0 mi Calm Calm - N/A   Clear
3:53 AM 71.1 °F - 66.9 °F 87% 29.97 in 8.0 mi Calm Calm - N/A   Clear
4:53 AM 70.0 °F - 66.9 °F 90% 29.98 in 7.0 mi Calm Calm - N/A   Clear
5:53 AM 66.9 °F - 64.9 °F 93% 30.00 in 4.0 mi Calm Calm - N/A   Clear
6:53 AM 66.9 °F - 66.0 °F 97% 30.01 in 3.0 mi Calm Calm - N/A   Clear
7:02 AM 66.2 °F - 64.4 °F 94% 30.02 in 2.0 mi Calm Calm - N/A   Clear
7:11 AM 68.0 °F - 64.4 °F 88% 30.03 in 1.8 mi Calm Calm - N/A   Clear
7:21 AM 66.2 °F - 64.4 °F 94% 30.03 in 2.0 mi Calm Calm - N/A   Clear
7:34 AM 69.8 °F - 66.2 °F 88% 30.03 in 3.0 mi Calm Calm - N/A   Clear
7:53 AM 71.1 °F - 68.0 °F 90% 30.03 in 4.0 mi Calm Calm - N/A   Clear
8:53 AM 79.0 °F - 69.1 °F 72% 30.05 in 7.0 mi Calm Calm - N/A   Clear
9:53 AM 84.9 °F 89.4 °F 70.0 °F 61% 30.06 in 10.0 mi Calm Calm - N/A   Clear
10:53 AM 90.0 °F 92.8 °F 66.9 °F 46% 30.06 in 10.0 mi Calm Calm - N/A   Clear
11:53 AM 93.0 °F 95.9 °F 66.0 °F 41% 30.05 in 10.0 mi Variable 3.5 mph - N/A   Clear
12:53 PM 93.9 °F 95.6 °F 64.0 °F 37% 30.03 in 10.0 mi SE 6.9 mph - N/A   Clear
1:53 PM 93.9 °F 95.2 °F 63.0 °F 36% 30.01 in 10.0 mi Calm Calm - N/A   Partly Cloudy
2:53 PM 95.0 °F 97.0 °F 64.0 °F 36% 29.99 in 10.0 mi SE 3.5 mph - N/A   Clear
3:53 PM 97.0 °F 97.8 °F 62.1 °F 31% 29.97 in 10.0 mi Variable 4.6 mph - N/A   Partly Cloudy
4:53 PM 96.1 °F 96.9 °F 62.1 °F 32% 29.96 in 10.0 mi Calm Calm - N/A   Mostly Cloudy
5:53 PM 95.0 °F 96.0 °F 63.0 °F 34% 29.96 in 10.0 mi SE 6.9 mph - N/A   Clear
6:53 PM 91.0 °F 91.9 °F 63.0 °F 39% 29.96 in 10.0 mi SSE 5.8 mph - N/A   Clear
7:53 PM 84.9 °F 86.1 °F 64.0 °F 49% 29.97 in 10.0 mi South 4.6 mph - N/A   Clear
8:53 PM 82.9 °F 84.4 °F 64.0 °F 53% 29.99 in 10.0 mi South 4.6 mph - N/A   Clear
9:53 PM 79.0 °F - 68.0 °F 69% 30.01 in 10.0 mi South 3.5 mph - N/A   Clear
10:53 PM 79.0 °F - 66.0 °F 64% 30.01 in 10.0 mi Calm Calm - N/A   Clear
11:53 PM 77.0 °F - 66.0 °F 69% 30.01 in 10.0 mi Calm Calm - N/A   Clear